Theta_e
339 346 349 350 346 346 346 346 346 347 347 345 346 346 346 344 343 342 341 341 341 341 342 343 341 339 339 338 338 341 341 341 340 339 338 338 337 337 336 335 338 333 335
342 347 347 349 347 348 348 348 347 347 347 345 346 346 345 343 342 340 339 340 339 338 340 340 339 338 337 337 337 339 340 339 338 338 340 339 338 336 336 335 338 334 334
342 347 349 346 346 348 349 348 347 347 347 346 346 345 344 342 341 339 338 340 337 337 338 338 338 337 336 337 337 337 337 338 337 337 338 335 335 336 336 334 334 334 333
344 347 348 344 347 349 349 348 347 348 348 346 345 344 342 340 339 338 337 337 337 336 337 337 336 337 336 337 338 337 335 334 333 334 334 335 333 336 335 333 333 334 333
344 345 347 344 348 348 348 348 347 347 347 347 344 341 340 338 338 337 336 336 336 336 336 336 335 336 335 335 337 337 335 333 332 331 330 334 335 335 334 331 331 332 333
344 346 343 345 349 349 347 347 347 347 345 344 343 341 339 339 340 337 339 336 336 335 335 335 335 334 334 333 333 334 333 330 331 328 327 332 337 337 335 333 331 331 331
343 344 344 344 346 348 347 347 346 346 345 345 344 342 342 342 339 340 339 339 338 335 335 334 334 332 332 332 330 329 328 325 326 326 326 326 331 331 333 332 330 329 328
342 341 340 338 340 344 346 346 345 345 345 346 344 343 342 341 340 338 338 340 338 336 333 333 332 331 330 329 328 327 325 324 325 326 327 328 328 332 329 329 329 329 328
342 340 344 343 340 337 340 341 342 343 343 343 343 341 340 338 338 338 338 338 337 335 333 332 331 330 329 329 328 327 326 324 324 326 325 328 326 330 332 329 328 328 329
341 340 341 342 341 343 345 334 337 339 339 340 339 336 332 333 334 334 331 334 337 335 336 334 333 332 331 330 329 328 327 325 325 325 325 325 324 328 330 332 331 329 329
338 339 341 341 341 341 343 338 332 333 333 333 334 330 328 332 333 332 329 331 333 334 336 336 334 333 332 330 330 328 325 328 326 325 324 322 325 328 329 330 332 331 331
333 335 339 342 341 343 340 342 341 339 338 336 336 337 336 334 334 331 327 327 330 330 332 334 334 332 328 330 330 326 328 328 327 326 324 321 324 328 329 329 330 332 332
335 335 336 340 340 341 340 339 339 338 338 337 336 335 336 334 333 332 331 331 332 324 331 330 331 330 330 330 328 328 327 327 326 326 326 322 324 327 330 330 330 330 331
333 333 335 338 339 339 339 339 338 337 337 337 336 335 334 332 332 331 330 330 331 330 329 330 328 329 328 329 329 329 328 328 326 326 325 321 323 327 330 330 331 331 331
332 333 333 335 338 338 338 338 338 337 337 337 337 336 334 333 332 331 331 331 330 331 330 329 329 329 328 329 329 328 328 327 327 327 328 320 321 325 329 331 332 332 332
333 334 334 333 335 339 338 337 336 336 336 337 337 337 336 335 333 331 331 330 330 331 330 330 329 329 329 329 329 329 329 328 329 329 329 330 322 324 326 330 331 333 333
334 335 332 332 333 335 338 338 337 337 336 336 336 337 337 336 334 333 332 331 331 331 331 330 330 331 330 330 329 329 329 329 329 329 330 330 329 321 323 326 330 331 332
335 335 334 332 332 333 338 338 337 337 336 336 336 336 335 335 334 333 332 331 332 331 331 330 330 329 329 329 328 329 329 330 330 330 330 330 330 330 326 324 325 327 329
335 335 333 331 331 332 338 338 338 337 336 336 336 336 335 334 333 333 333 332 333 331 330 330 329 328 325 326 326 325 327 328 329 329 329 330 330 330 329 326 321 320 323
334 336 336 336 337 337 338 337 337 337 337 337 336 335 335 334 334 333 333 333 332 330 328 326 325 327 325 325 323 323 327 329 330 329 329 328 329 328 328 328 328 326 318
333 333 334 335 336 337 335 330 329 330 335 336 336 336 335 335 334 333 333 332 331 329 329 326 325 325 326 325 323 324 326 327 327 327 328 327 327 328 328 327 327 327 327
331 332 333 334 335 336 336 334 335 334 335 335 336 336 336 335 335 333 332 332 332 330 329 328 325 324 326 328 322 321 316 319 322 324 325 324 325 327 326 326 326 326 327
323 330 331 333 334 335 336 336 333 335 332 332 334 335 336 336 336 334 333 333 333 333 329 328 327 324 322 326 327 320 315 313 318 322 322 323 323 324 325 326 325 326 326
306 315 329 331 332 334 335 334 331 330 329 332 333 335 335 336 336 335 335 334 334 332 330 330 328 326 325 321 321 322 324 323 316 313 320 322 323 322 324 325 325 326 327
304 305 309 322 329 331 333 333 332 331 333 334 333 332 333 333 334 333 333 333 331 330 329 330 328 325 325 324 322 321 321 324 324 319 313 315 320 323 324 325 326 326 327
300 302 305 310 319 327 330 332 331 331 331 329 329 330 331 331 331 330 329 328 327 327 328 328 327 325 325 323 323 323 321 319 319 319 317 316 315 320 323 324 325 326 326
Wind_Speed
12 17 17 19 19 18 18 17 16 15 15 16 15 15 16 16 15 14 13 12 12 12 13 15 15 14 14 13 14 15 16 16 16 16 15 14 14 15 14 10 7 12 11
17 19 15 18 18 18 18 17 16 15 15 15 14 15 16 14 14 13 13 11 12 11 12 14 14 13 13 12 12 14 14 14 13 12 8 13 13 13 13 12 11 11 11
18 18 18 17 18 17 19 18 17 16 15 17 17 15 14 13 13 12 12 11 11 11 12 13 13 12 12 12 12 14 13 12 11 9 4 9 11 11 11 11 11 10 10
17 17 18 15 17 16 18 17 16 14 16 16 14 13 13 12 12 13 12 11 11 11 11 12 12 11 12 12 12 12 12 12 10 4 5 6 9 10 11 10 10 9 8
17 16 16 14 15 17 17 16 16 15 16 15 14 12 12 12 13 12 11 10 10 11 11 11 11 11 11 12 11 10 11 10 6 4 6 6 6 9 9 8 8 8 9
16 15 16 14 14 17 17 16 15 15 14 14 13 13 12 13 12 11 14 10 9 10 10 10 10 9 10 10 11 10 9 7 4 7 6 6 8 8 8 7 7 6 6
15 14 16 11 15 17 17 15 14 14 14 13 14 13 12 12 10 9 9 10 12 10 9 9 8 8 8 9 9 9 8 5 4 5 5 4 7 7 7 5 4 4 3
15 14 15 11 13 13 14 14 13 13 13 14 14 13 13 12 11 8 9 9 10 12 9 9 8 8 7 7 7 6 6 3 1 3 3 2 5 5 3 3 2 2 2
14 15 14 14 12 11 10 10 10 10 10 11 13 14 13 12 11 8 8 9 10 11 9 9 7 7 6 6 5 4 4 3 4 2 2 1 5 5 5 1 1 2 2
14 14 14 14 13 13 13 9 9 9 8 8 7 9 10 11 9 8 8 8 8 8 9 10 8 6 5 4 4 3 1 4 3 3 2 2 5 6 6 7 4 4 4
12 13 14 13 14 13 12 10 9 8 8 7 7 6 6 8 10 10 6 7 7 8 9 9 8 6 4 3 2 0 4 2 4 3 3 4 6 8 8 8 8 8 6
15 15 13 15 14 13 9 11 10 10 9 8 8 9 7 8 7 7 6 5 5 5 3 5 7 6 6 4 3 6 4 4 4 4 4 1 7 9 9 9 8 9 10
15 13 14 15 14 14 11 9 6 6 6 7 9 9 8 7 6 6 5 6 7 6 6 6 6 6 5 5 4 4 4 5 4 4 4 4 8 9 10 10 11 11 11
16 16 15 14 14 14 9 9 9 8 8 7 9 10 7 6 7 6 5 6 6 5 6 6 4 5 6 6 6 6 6 6 4 4 5 6 8 10 11 12 13 13 14
16 16 16 14 14 13 12 9 9 9 9 9 9 11 8 8 7 7 7 6 6 6 6 5 5 5 6 6 6 6 7 7 8 5 5 5 9 12 13 14 15 15 16
17 17 16 16 14 14 13 12 9 8 9 9 9 9 12 8 8 8 7 7 6 6 5 5 5 5 5 5 7 7 8 7 8 8 6 7 10 12 14 15 16 17 17
16 16 16 16 16 14 15 12 9 8 8 8 8 11 12 10 9 8 7 7 6 6 7 6 6 6 6 6 8 7 7 8 8 9 8 7 8 11 13 15 16 17 17
16 16 15 11 13 13 14 11 9 9 8 8 8 8 12 12 11 9 7 7 7 6 6 6 6 6 6 6 6 6 6 7 9 10 9 8 8 8 7 13 14 16 16
16 16 15 15 14 14 15 11 11 11 9 8 8 8 11 12 11 9 7 7 7 6 6 6 6 5 6 6 6 6 7 9 10 9 11 11 10 8 7 7 9 12 14
15 16 15 14 16 16 11 10 9 9 9 9 9 9 11 9 12 10 8 8 8 6 5 5 7 6 6 6 5 7 8 9 9 9 9 8 8 8 8 8 6 6 10
15 16 16 16 16 13 11 9 8 9 9 9 9 11 11 10 12 12 9 9 9 8 9 8 6 8 6 6 4 7 8 9 10 7 5 5 6 6 6 6 5 5 5
16 16 16 16 16 14 11 10 7 8 8 8 8 11 14 14 13 11 11 9 10 8 9 9 8 4 5 5 4 2 5 2 2 4 5 5 6 4 6 7 8 9 8
14 16 16 16 16 15 15 9 8 4 3 7 10 10 12 13 13 13 12 11 10 9 7 8 7 8 5 5 8 5 4 3 4 3 3 5 7 6 8 8 9 9 9
10 10 13 14 15 14 15 12 15 11 10 10 8 8 8 11 11 11 12 11 11 9 8 8 6 7 6 5 1 4 7 7 5 6 3 6 8 9 10 8 8 9 9
7 7 8 11 12 13 14 14 12 12 9 6 6 7 6 6 8 8 8 9 9 7 8 9 7 7 6 5 5 3 6 9 10 10 10 8 7 7 8 7 8 8 8
4 3 5 7 9 10 12 14 14 13 11 6 5 5 5 4 4 3 4 5 5 4 6 5 6 6 7 5 5 5 5 6 7 9 10 11 11 7 6 6 8 7 5
Wind_Direction
163 152 159 152 152 154 148 145 144 142 145 142 140 126 131 124 120 111 110 109 102 102 99 95 87 82 81 77 77 77 73 75 76 75 74 72 69 67 67 51 54 73 60
154 153 156 152 155 160 150 146 145 148 148 142 144 138 131 126 119 116 113 112 112 109 109 104 95 88 83 79 85 82 79 77 74 72 90 98 68 67 67 61 46 69 64
150 150 159 153 157 162 151 150 151 153 151 144 138 137 127 127 121 120 118 113 115 115 115 114 104 90 81 81 93 87 79 74 68 62 347 73 76 68 66 61 64 65 67
150 152 156 154 159 156 152 153 151 155 149 140 138 136 136 134 130 127 124 119 118 121 119 114 107 91 82 82 91 88 81 72 62 5 66 65 81 65 65 64 63 57 67
153 157 146 156 161 154 153 155 153 156 146 143 138 140 141 136 132 128 129 130 125 126 125 121 114 97 86 83 83 86 77 69 56 68 68 46 57 86 76 63 74 64 29
153 156 142 153 159 153 155 158 159 154 146 152 145 145 144 144 152 143 142 135 127 126 127 125 117 103 92 84 82 80 75 60 309 63 61 77 40 89 82 69 61 56 43
158 156 160 163 152 151 160 162 161 160 160 156 151 149 154 147 135 129 131 151 136 127 126 123 117 105 96 88 80 76 70 50 32 63 68 58 57 39 61 57 50 49 45
156 155 156 168 144 147 155 161 166 168 168 162 158 156 160 153 143 139 129 132 136 137 134 135 128 120 113 104 97 89 79 15 170 74 63 41 44 359 59 52 36 14 2
157 160 162 163 153 139 145 156 163 173 176 168 168 162 148 151 146 150 147 135 142 128 146 144 141 136 133 124 112 96 79 19 310 18 333 318 42 337 324 206 221 281 271
165 166 166 166 168 166 163 149 149 149 153 157 159 161 151 144 159 171 156 156 152 154 163 160 157 161 157 147 137 130 98 237 308 305 291 14 328 308 311 296 265 242 270
169 173 172 172 173 176 171 162 153 151 148 146 149 149 180 179 183 166 174 161 197 178 175 176 175 177 175 179 188 83 279 293 297 293 290 74 303 300 294 298 283 274 250
176 178 183 179 177 175 173 168 180 172 180 182 182 179 189 188 193 202 176 191 190 180 182 186 192 193 212 248 212 205 256 282 279 285 281 316 285 287 291 283 287 277 276
181 181 185 189 182 181 178 175 179 179 181 184 185 182 185 186 185 200 196 199 209 195 215 206 204 231 248 267 269 272 285 279 279 276 268 238 266 275 280 279 281 279 275
190 190 188 193 188 188 184 186 184 187 186 187 190 190 187 191 194 201 206 205 210 210 225 227 233 246 248 252 267 280 282 282 279 286 280 212 259 270 276 275 272 274 273
192 193 195 193 197 191 195 193 191 194 193 194 190 193 196 201 203 205 209 208 212 210 220 225 233 239 242 253 262 268 276 278 277 274 279 223 245 262 266 270 271 273 272
193 193 194 196 197 197 199 197 196 200 197 198 197 198 203 205 206 208 212 218 222 220 223 231 236 238 246 253 259 264 271 274 275 276 274 276 224 249 259 262 265 268 270
196 190 196 197 197 203 203 201 204 201 202 204 205 205 205 211 214 215 219 220 222 219 229 232 237 243 251 248 258 266 269 269 271 274 274 273 273 228 240 259 262 265 269
197 193 192 193 196 201 206 201 204 206 207 209 210 208 208 211 217 219 226 228 225 222 224 230 236 245 254 260 269 274 271 272 271 272 270 268 266 271 232 229 251 262 267
200 194 193 198 198 198 209 204 205 207 209 213 215 214 212 212 213 220 225 230 224 225 225 236 241 246 259 263 268 273 271 269 268 265 267 269 270 268 271 264 237 255 263
206 202 202 196 199 200 203 205 207 207 209 212 214 215 214 212 214 215 220 221 213 213 219 218 230 231 245 260 263 267 270 266 264 262 270 275 269 266 262 264 272 258 232
211 207 207 204 204 196 198 194 203 206 212 210 213 215 215 217 216 217 220 219 209 210 219 215 222 240 241 240 262 260 265 262 260 259 261 265 264 260 260 262 260 264 267
214 212 211 209 204 203 196 199 207 204 223 220 219 215 212 212 215 221 224 225 220 225 222 214 207 217 253 225 252 255 288 246 234 225 251 270 271 277 273 260 256 255 260
224 217 214 212 209 204 207 195 197 197 207 208 221 223 221 217 214 216 223 232 236 235 231 227 210 212 231 224 227 250 274 254 296 273 224 263 264 257 269 270 262 263 266
234 237 227 219 212 208 200 197 198 206 210 218 215 217 211 209 213 220 229 231 239 241 238 230 217 217 219 222 198 245 254 274 274 286 258 250 267 273 272 271 272 269 274
266 235 229 227 218 209 205 206 208 221 227 222 210 199 195 189 204 210 223 233 236 239 244 244 225 213 213 229 212 190 230 249 254 260 277 273 266 256 273 279 282 282 290
346 244 219 211 218 213 209 210 215 218 225 217 215 194 184 175 174 186 215 230 236 241 247 240 229 224 227 225 236 229 237 268 254 256 266 273 282 279 285 269 274 275 281